Harrison, AR

6:38 PM CDT on April 27, 2017 (GMT -0500)
Boone County

Weather History for KHRO - December, 2013

Change the Weather History Date:

Saturday, December 28, 2013

  Actual Average Record
Temperature  
Mean Temperature 41 °F 36 °F  
Max Temperature 54 °F 46 °F 72 °F (1928)
Min Temperature 28 °F 26 °F 0 °F (1925)
Degree Days  
Heating Degree Days 24 29  
Month to date heating degree days 786 748  
Since 1 July heating degree days 1599 1512  
Cooling Degree Days 0 0  
Month to date cooling degree days 0 0  
Year to date cooling degree days 1414 1416  
Moisture  
Dew Point 26 °F    
Average Humidity 54    
Maximum Humidity 78    
Minimum Humidity 30    
Precipitation  
Precipitation 0.00 in 0.09 in 3.46 in (1968)
Month to date precipitation 3.75 2.93  
Year to date precipitation 45.26 43.87  
Snow  
Snow 0.00 in 0.10 in 3.30 in (1997)
Month to date snowfall 9.0 1.0  
Since 1 July snowfall 9.0 1.5  
Snow Depth 0.00 in    
Sea Level Pressure  
Sea Level Pressure 30.13 in    
Wind  
Wind Speed 4 mph (SE)    
Max Wind Speed 13 mph    
Max Gust Speed 17 mph    
Visibility 10 miles    
Events      
T = Trace of Precipitation, MM = Missing Value Source: NWS Daily Summary

Daily Weather History Graph

Daily Weather History Graph

Search for Another Location

Airport or City:

Trip Planner

Search our weather history database for the weather conditions in past years. The results will help you decide how hot, cold, wet, or windy it might be!

Date:

Astronomy

Dec. 28, 2013 Rise Set
Actual Time 7:23 AM CST 5:05 PM CST
Civil Twilight 6:54 AM CST 5:34 PM CST
Nautical Twilight 6:22 AM CST 6:06 PM CST
Astronomical Twilight 5:50 AM CST 6:37 PM CST
Moon 3:04 AM CST (12/28) 1:53 PM CST (12/28)
Length of Visible Light 10h 40m
Length of Day
9h 42m
Waning Crescent, 19% of the Moon is Illuminated
Dec 28
Waning Crescent
Jan 1
New
Jan 7
First Quarter
Jan 15
Full
Jan 23
Last Quarter

Hourly Weather History & Observations

Time (CST) Temp. Windchill Dew Point Humidity Pressure Visibility Wind Dir Wind Speed Gust Speed Precip Events Conditions
12:53 AM 37.9 °F - 25.0 °F 60% 30.29 in 10.0 mi Calm Calm - N/A   Clear
1:53 AM 34.0 °F - 25.0 °F 70% 30.27 in 10.0 mi Calm Calm - N/A   Clear
2:53 AM 34.0 °F - 25.0 °F 70% 30.26 in 10.0 mi Calm Calm - N/A   Clear
3:53 AM 32.0 °F - 24.1 °F 73% 30.25 in 10.0 mi Calm Calm - N/A   Clear
4:53 AM 33.1 °F - 25.0 °F 72% 30.25 in 10.0 mi Calm Calm - N/A   Clear
5:53 AM 30.9 °F - 24.1 °F 76% 30.24 in 10.0 mi Calm Calm - N/A   Clear
6:53 AM 30.9 °F - 24.1 °F 76% 30.25 in 10.0 mi Calm Calm - N/A   Clear
7:53 AM 30.9 °F - 25.0 °F 79% 30.24 in 10.0 mi Calm Calm - N/A   Clear
8:53 AM 35.1 °F - 28.9 °F 78% 30.25 in 10.0 mi Calm Calm - N/A   Clear
9:53 AM 37.9 °F - 30.0 °F 73% 30.23 in 10.0 mi Calm Calm - N/A   Clear
10:53 AM 42.1 °F 40.2 °F 32.0 °F 67% 30.22 in 10.0 mi SE 3.5 mph - N/A   Clear
11:53 AM 48.0 °F - 30.0 °F 50% 30.18 in 10.0 mi SSE 5.8 mph - N/A   Clear
12:53 PM 48.0 °F - 32.0 °F 54% 30.12 in 10.0 mi SSE 4.6 mph - N/A   Clear
1:53 PM 51.1 °F - 23.0 °F 33% 30.08 in 10.0 mi South 10.4 mph - N/A   Mostly Cloudy
2:53 PM 51.1 °F - 21.9 °F 32% 30.04 in 10.0 mi SE 6.9 mph - N/A   Mostly Cloudy
3:53 PM 52.0 °F - 21.9 °F 31% 30.03 in 10.0 mi SSE 6.9 mph - N/A   Overcast
4:53 PM 46.9 °F - 19.9 °F 34% 30.01 in 10.0 mi SE 6.9 mph - N/A   Partly Cloudy
5:53 PM 44.1 °F 39.5 °F 24.1 °F 45% 30.02 in 10.0 mi SSE 8.1 mph - N/A   Mostly Cloudy
6:53 PM 42.1 °F 38.4 °F 26.1 °F 53% 30.01 in 10.0 mi South 5.8 mph - N/A   Clear
7:53 PM 42.1 °F 38.4 °F 27.0 °F 55% 30.00 in 10.0 mi ESE 5.8 mph - N/A   Clear
8:53 PM 39.9 °F 35.8 °F 28.9 °F 65% 29.98 in 10.0 mi SSE 5.8 mph - N/A   Clear
9:53 PM 39.9 °F 37.8 °F 30.0 °F 68% 29.98 in 10.0 mi ESE 3.5 mph - N/A   Clear
10:53 PM 39.9 °F 35.8 °F 30.0 °F 68% 29.96 in 10.0 mi SE 5.8 mph - N/A   Clear
11:53 PM 37.9 °F 33.5 °F 30.0 °F 73% 29.95 in 10.0 mi SSE 5.8 mph - N/A   Clear